Location: Unspecified
(43.0000°N, 0.0000°E)
Time: 13:35:01
(UTC+00:00)

PicSat - Pass Details

Date: 21 August 2020
Orbit: 482 x 496 km, 97.4° (Epoch: 21 September)

Event Time Altitude Azimuth Distance (km) Brightness Sun altitude
Exits shadow 20:42:58 12° 53° (NE) 1,601 ? -18.8°
Drops below altitude 10° 20:43:44 10° 41° (NE) 1,699 ? -18.9°
Sets 20:46:55 0° 10° (N) 2,585 ? -19.3°
